Blacksburg, VA

11:44 PM EDT on May 26, 2018 (GMT -0400)
Virginia Tech

Weather History for KBCB - January, 2013

Change the Weather History Date:

Thursday, January 31, 2013

  Actual Average Record
Temperature  
Mean Temperature 36 °F 32 °F  
Max Temperature 45 °F 42 °F 73 °F (2002)
Min Temperature 27 °F 22 °F -10 °F (1966)
Degree Days  
Heating Degree Days 29 33  
Month to date heating degree days 892 1044  
Since 1 July heating degree days 2981 3187  
Cooling Degree Days 0 0  
Month to date cooling degree days 0 0  
Year to date cooling degree days 0 0  
Moisture  
Dew Point 27 °F    
Average Humidity 81    
Maximum Humidity 100    
Minimum Humidity 61    
Precipitation  
Precipitation 0.06 in 0.10 in 0.55 in (1957)
Month to date precipitation 7.74 3.08  
Year to date precipitation 7.74 3.08  
Snow  
Snow 0.10 in - - ()
Month to date snowfall 9.2  
Since 1 July snowfall 11.7  
Snow Depth T in    
Sea Level Pressure  
Sea Level Pressure 29.75 in    
Wind  
Wind Speed 13 mph (West)    
Max Wind Speed 20 mph    
Max Gust Speed 31 mph    
Visibility 9 miles    
Events Rain , Snow    
T = Trace of Precipitation, MM = Missing Value Source: NWS Daily Summary

Daily Weather History Graph

Daily Weather History Graph

Search for Another Location

Airport or City:

Astronomy

Jan. 31, 2013 Rise Set
Actual Time 7:25 AM EST 5:45 PM EST
Civil Twilight 6:57 AM EST 6:13 PM EST
Nautical Twilight 6:26 AM EST 6:44 PM EST
Astronomical Twilight 5:55 AM EST 7:14 PM EST
Moon 10:37 PM EST (1/31) 9:31 AM EST (1/31)
Length of Visible Light 11h 15m
Length of Day
10h 20m
Waning Gibbous, 80% of the Moon is Illuminated
Jan 31
Waning Gibbous
Feb 3
Last Quarter
Feb 10
New
Feb 17
First Quarter
Feb 25
Full

Hourly Weather History & Observations

Time (EST) Temp. Windchill Dew Point Humidity Pressure Visibility Wind Dir Wind Speed Gust Speed Precip Events Conditions
12:17 AM 46.4 °F 41.1 °F 44.6 °F 93% 29.47 in 10.0 mi WSW 11.5 mph 23.0 mph 0.01 in Rain Light Rain
12:35 AM 46.4 °F 40.7 °F 44.6 °F 93% 29.45 in 10.0 mi WSW 12.7 mph 23.0 mph 0.01 in Rain Light Rain
12:57 AM 46.4 °F 41.9 °F 44.6 °F 93% 29.45 in 10.0 mi SW 9.2 mph 20.7 mph N/A Rain Light Rain
1:17 AM 46.4 °F 41.1 °F 42.8 °F 87% 29.44 in 10.0 mi WSW 11.5 mph 19.6 mph N/A   Mostly Cloudy
1:55 AM 42.8 °F 35.4 °F 39.2 °F 87% 29.48 in 10.0 mi WNW 15.0 mph 24.2 mph 0.01 in Rain Light Rain
2:15 AM 41.0 °F 35.2 °F 39.2 °F 93% 29.48 in 10.0 mi West 9.2 mph 17.3 mph N/A   Overcast
2:35 AM 41.0 °F 32.8 °F 39.2 °F 93% 29.48 in 10.0 mi West 16.1 mph 21.9 mph N/A   Overcast
2:58 AM 41.0 °F 34.3 °F 37.4 °F 87% 29.49 in 10.0 mi West 11.5 mph 20.7 mph N/A   Overcast
3:15 AM 41.0 °F 32.8 °F 37.4 °F 87% 29.50 in 10.0 mi WNW 16.1 mph 31.1 mph N/A   Light Drizzle
3:35 AM 37.4 °F 27.8 °F 37.4 °F 100% 29.53 in 7.0 mi WNW 17.3 mph 25.3 mph 0.01 in Rain Rain
3:55 AM 37.4 °F 29.3 °F 37.4 °F 100% 29.54 in 7.0 mi WNW 12.7 mph 24.2 mph 0.01 in Rain Rain
4:17 AM 35.6 °F 25.9 °F 35.6 °F 100% 29.56 in 4.0 mi WNW 16.1 mph 28.8 mph N/A Snow Light Snow
4:37 AM 35.6 °F 25.2 °F 33.8 °F 93% 29.58 in 10.0 mi WNW 18.4 mph 28.8 mph N/A   Overcast
4:57 AM 35.6 °F 25.5 °F 32.0 °F 87% 29.60 in 5.0 mi West 17.3 mph 29.9 mph N/A Snow Light Snow
5:35 AM 35.6 °F 27.5 °F 28.4 °F 75% 29.63 in 10.0 mi West 11.5 mph 24.2 mph N/A   Overcast
5:55 AM 33.8 °F 25.3 °F 30.2 °F 87% 29.64 in 7.0 mi West 11.5 mph 18.4 mph N/A Snow Light Snow
6:35 AM 32.0 °F 21.6 °F 30.2 °F 93% 29.66 in 2.0 mi WNW 15.0 mph 25.3 mph N/A Snow Light Snow
7:55 AM 32.0 °F 22.5 °F 26.6 °F 80% 29.70 in 10.0 mi West 12.7 mph 19.6 mph N/A Snow Light Snow
8:18 AM 32.0 °F 23.6 °F 24.8 °F 75% 29.71 in 10.0 mi West 10.4 mph 29.9 mph N/A   Overcast
8:38 AM 32.0 °F 20.5 °F 23.0 °F 69% 29.74 in 10.0 mi WNW 18.4 mph 25.3 mph N/A   Overcast
8:58 AM 32.0 °F 20.8 °F 21.2 °F 64% 29.76 in 10.0 mi West 17.3 mph 29.9 mph N/A   Overcast
9:17 AM 33.8 °F 24.8 °F 23.0 °F 65% 29.76 in 10.0 mi West 12.7 mph 20.7 mph N/A   Overcast
9:35 AM 32.0 °F 22.5 °F 24.8 °F 75% 29.77 in 10.0 mi West 12.7 mph 31.1 mph N/A   Overcast
9:57 AM 33.8 °F 24.3 °F 26.6 °F 75% 29.77 in 5.0 mi West 13.8 mph 24.2 mph N/A Snow Light Snow
10:37 AM 33.8 °F 22.8 °F 23.0 °F 65% 29.80 in 10.0 mi West 18.4 mph 27.6 mph N/A   Overcast
11:17 AM 35.6 °F 27.5 °F 24.8 °F 65% 29.82 in 10.0 mi West 11.5 mph 31.1 mph N/A   Overcast
11:35 AM 33.8 °F 24.8 °F 21.2 °F 60% 29.82 in 10.0 mi West 12.7 mph 29.9 mph N/A   Overcast
11:57 AM 33.8 °F 22.5 °F 21.2 °F 60% 29.81 in 10.0 mi WNW 19.6 mph 27.6 mph N/A   Mostly Cloudy
12:18 PM 35.6 °F 24.8 °F 21.2 °F 56% 29.80 in 10.0 mi West 19.6 mph 33.4 mph N/A   Mostly Cloudy
12:38 PM 35.6 °F 25.9 °F 21.2 °F 56% 29.80 in 10.0 mi West 16.1 mph 27.6 mph N/A   Overcast
12:55 PM 33.8 °F 23.9 °F 23.0 °F 65% 29.80 in 10.0 mi WNW 15.0 mph 26.5 mph N/A   Overcast
1:17 PM 33.8 °F 24.8 °F 23.0 °F 65% 29.81 in 10.0 mi West 12.7 mph 25.3 mph N/A   Overcast
1:35 PM 33.8 °F 23.9 °F 23.0 °F 65% 29.81 in 10.0 mi West 15.0 mph 27.6 mph N/A   Overcast
1:57 PM 33.8 °F 23.5 °F 24.8 °F 70% 29.83 in 10.0 mi West 16.1 mph 25.3 mph N/A   Overcast
2:35 PM 33.8 °F 24.3 °F 21.2 °F 60% 29.83 in 10.0 mi West 13.8 mph 27.6 mph N/A   Overcast
3:15 PM 33.8 °F 25.3 °F 21.2 °F 60% 29.84 in 10.0 mi West 11.5 mph 20.7 mph N/A   Overcast
3:38 PM 33.8 °F 24.8 °F 21.2 °F 60% 29.85 in 10.0 mi West 12.7 mph 28.8 mph N/A   Overcast
3:55 PM 33.8 °F 22.8 °F 21.2 °F 60% 29.85 in 10.0 mi West 18.4 mph 28.8 mph N/A   Overcast
4:15 PM 33.8 °F 23.5 °F 23.0 °F 65% 29.86 in 10.0 mi West 16.1 mph 25.3 mph N/A   Overcast
4:35 PM 33.8 °F 23.9 °F 23.0 °F 65% 29.86 in 10.0 mi West 15.0 mph 26.5 mph N/A Snow Light Snow
4:55 PM 32.0 °F 22.1 °F 21.2 °F 64% 29.87 in 10.0 mi West 13.8 mph 24.2 mph N/A Snow Light Snow
5:19 PM 32.0 °F 24.2 °F 23.0 °F 69% 29.87 in 10.0 mi WNW 9.2 mph 20.7 mph N/A   Overcast
5:39 PM 32.0 °F 24.8 °F 23.0 °F 69% 29.87 in 10.0 mi WNW 8.1 mph 17.3 mph N/A   Scattered Clouds
5:55 PM 30.2 °F 21.9 °F 21.2 °F 69% 29.88 in 10.0 mi WNW 9.2 mph - N/A   Scattered Clouds
6:15 PM 30.2 °F 20.2 °F 21.2 °F 69% 29.89 in 10.0 mi West 12.7 mph 23.0 mph N/A   Scattered Clouds
6:37 PM 30.2 °F 21.9 °F 21.2 °F 69% 29.89 in 10.0 mi WNW 9.2 mph 24.2 mph N/A   Mostly Cloudy
6:57 PM 30.2 °F 20.2 °F 21.2 °F 69% 29.88 in 10.0 mi West 12.7 mph 21.9 mph N/A   Scattered Clouds
7:37 PM 30.2 °F 21.3 °F 21.2 °F 69% 29.89 in 10.0 mi West 10.4 mph 17.3 mph N/A   Scattered Clouds
7:55 PM 30.2 °F 21.9 °F 21.2 °F 69% 29.89 in 10.0 mi WNW 9.2 mph 17.3 mph N/A   Clear
8:17 PM 30.2 °F 21.9 °F 21.2 °F 69% 29.89 in 10.0 mi West 9.2 mph - N/A   Clear
8:37 PM 30.2 °F 23.4 °F 23.0 °F 75% 29.88 in 10.0 mi West 6.9 mph 20.7 mph N/A   Clear
9:17 PM 30.2 °F 21.3 °F 23.0 °F 75% 29.88 in 10.0 mi West 10.4 mph 16.1 mph N/A   Clear
9:35 PM 32.0 °F 24.2 °F 23.0 °F 69% 29.89 in 10.0 mi West 9.2 mph - N/A   Clear
10:15 PM 32.0 °F 26.4 °F 23.0 °F 69% 29.89 in 10.0 mi West 5.8 mph - N/A   Clear
10:37 PM 32.0 °F 25.6 °F 23.0 °F 69% 29.88 in 10.0 mi West 6.9 mph - N/A   Clear
10:58 PM 33.8 °F 27.7 °F 24.8 °F 70% 29.87 in 10.0 mi WSW 6.9 mph - N/A   Clear
11:17 PM 33.8 °F 27.7 °F 24.8 °F 70% 29.87 in 10.0 mi WSW 6.9 mph - N/A   Clear
11:57 PM 33.8 °F 28.6 °F 24.8 °F 70% 29.85 in 10.0 mi WSW 5.8 mph - N/A   Clear